sat.trackr.live / text

‹ back to catalog

STARLINK-2623

NORAD 48368 · 2021-038R

PAYLOAD ACTIVE UNKNOWN

§ Identity

Operator
Country
US
Launch date
2021-05-04
Launch site
AFETR
Launch vehicle
Mass (kg)
RCS (m²)

Purposes: comms

External: N2YO · Heavens-Above · Gunter

§ Orbital elements

Epoch: 2026-09-19T06:48:34.278048Z

Period
94.01 min
Inclination
53.1599°
Eccentricity
0.0001284
Mean motion
15.31698884 rev/d
Perigee alt
469.9 km
Apogee alt
471.6 km
Semi-major
6,848.9 km
B*
-1.4833e-5
RAAN
167.4200°
Arg perigee
78.7897°
Mean anomaly
281.3248°
Rev number
29,688

§ Raw data

STARLINK-26231 48368U 21038R   26262.28373007 -.00000825  00000+0 -14833-4 0  99902 48368  53.1599 167.4200 0001284  78.7897 281.3248 15.31698884296888

JSON: /api/v1/satellites/48368 · /tle

For live sub-satellite position, see the globe view (requires WebGL).

§ Visibility from observer

Set your observer location to see the next 7 days of passes ≥ 10°. The values pass through the URL so the page stays shareable.

No JS? Fill the form by hand. The geolocation button needs JavaScript.